Terminal Aerodrome Forecast
Issued by NWS Portland, OR

Home | Current Version | Previous Version | Text Only | Print | Product List | Glossary On
Versions: 1 2 3 4 5 6 7 8 9 10 11 12 13 14 15 16 17 18 19 20 21 22 23 24 25 26 27
000
FTUS46 KPQR 260909 AAB
TAFPDX
TAF AMD
KPDX 260909Z 2609/2706 30006KT P6SM OVC035
     FM261000 29005KT P6SM SCT025 OVC035
      TEMPO 2613/2617 BKN025
     FM262200 33010G16KT P6SM VCSH BKN040=

USA.gov is the U.S. government's official web portal to all federal, state and local government web resources and services.